Skip Page Navigation
NASA JPL Caltech
NASA Logo - Jet Propulsion Laboratory + View the NASA Portal
+ Near-Earth Object (NEO) Program
Search JPL
JPL Home Earth Solar System Stars & Galaxies Technology
JPL Solar System Dynamics
BODIES ORBITS EPHEMERIDES TOOLS PHYSICAL DATA DISCOVERY FAQ SITE MAP
JPL Small-Body Database Browser
Search: [ help ]  
136108 Haumea (2003 EL61)
Classification: TransNeptunian Object          SPK-ID: 2136108
Ephemeris | Orbit Diagram | Orbital Elements | Physical Parameters | Discovery Circumstances ]

[ show orbit diagram ]
Orbital Elements at Epoch 2456400.5 (2013-Apr-18.0) TDB
Reference: JPL 53 (heliocentric ecliptic J2000)
 Element Value Uncertainty (1-sigma)   Units 
e .1952362367140557 2.3091e-05  
a 43.05869839021653 0.0011626 AU
q 34.65208015870509 0.001929 AU
i 28.194109384004 3.5785e-05 deg
node 121.818967670117 0.00025912 deg
peri 240.6766715814418 0.0015394 deg
M 206.4807665255816 0.0024841 deg
tp 2500410.367968656270
(2133-Oct-15.86796866)
2.2079 JED
period 103202.3943199035
282.55
4.1798
0.01144
d
yr
n .003488291161967458 1.4128e-07 deg/d
Q 51.46531662172798 0.0013896 AU
  Orbit Determination Parameters
   # obs. used (total)      1048  
   data-arc span      21208 days (58.06 yr)  
   first obs. used      1955-03-22  
   last obs. used      2013-04-14  
   planetary ephem.      DE405  
   SB-pert. ephem.      SB405-CPV-2  
   condition code      2  
   fit RMS      .36295  
   data source      ORB  
   producer      Otto Matic  
   solution date      2013-Apr-29 19:18:49  

Additional Information
 Earth MOID = 33.7387 AU 
 T_jup = 5.094 
[ show covariance matrix ]

Ephemeris | Orbit Diagram | Orbital Elements | Physical Parameters | Discovery Circumstances ]

Physical Parameter Table
Parameter Symbol Value Units Sigma Reference Notes
absolute magnitude H .039697 mag .42605 53 autocmod 2.5c
rotation period rot_per 3.9154 h n/a Asteroid Lightcurve DataBase (Rev. 2013-May-01) Published Reference List:
[Rabinowitz, D.L.; Barkume, K.; Brown, M.E.; Roe, H.; et al. (2006) Astrophys. J. 639, 1238-1251.]
[Rabinowitz, D.L.; Schaefer, B.E.; Tourtellotte, S.W. (2007) Astron. J. 133, 26-43.]
[Lellouch, E.; Kiss, C.; Santos-Sanz, P.; Muller, T.G.; et al. (2010) Astron. Astrophys. 518, L147.]
[Thirouin, A.; Ortiz, J.L.; Duffard, R.; Santos-Sanz, P.; et al. (2010) Astron. Astrophys. 522, A93.]
[Behrend, R. (2011) Observatoire de Geneve web site, http://obswww.unige.ch/~behrend/page_cou.html]

136108 Haumea           Discovered 2003 Mar. 7 at the Sierra Nevada Observatory.
Haumea is the goddess of childbirth and fertility in Hawaiian mythology. Her many children sprang from different parts of her body. She takes many different forms and has experienced many different rebirths. As the goddess of the earth, she represents the element of stone. The satellites (136108) Haumea I and II were discovered by M. E. Brown, A. H. Bouchez and the Keck Observatory Adaptive Optics teams. Haumea I, discovered 2005 Jan. 26, is named Hi'iaka, who was born from the mouth of Haumea and carried by her sister Pele in egg form from their distant home to Hawaii. Hi'iaka danced the first Hula on the shores of Puna and is the patron goddess of the island of Hawaii and of hula dancers. Haumea II, discovered 2005 Nov. 7, is named Namaka, for a water spirit in Hawaiian mythology. Namaka was born from the body of Haumea and is the sister of Pele. When Pele sends her burning lava into the sea, Namaka cools the lava to become new land.
NOTE: some special characters may not display properly (any characters within {} are an attempt to place the proper accent above a character)
Reference: 20080917/MPCPages.arcLast Updated: 2008-09-19
Ephemeris | Orbit Diagram | Orbital Elements | Physical Parameters | Discovery Circumstances ]
ABOUT SSD CREDITS/AWARDS PRIVACY/COPYRIGHT GLOSSARY LINKS
FirstGov 2013-May-24 20:51 UT
(server date/time)  
NASA Home Page
Site Manager:   Donald K. Yeomans
Webmaster  Alan B. Chamberlin